,,,PA_Meas_PMT16A,,PR_Meas_QMR101_102,,RH_Meas_QMH101,,SR_Meas_QMS101,,TA_Meas_QMH101,,GenWind,,GenWind,
date,time,status,PA,status,PR,status,RH,status,SR,status,TA,status,DirAvg,status,SpdAvg,
2011-11-13, 00:00:04,VALID,1000.8,VALID,0,VALID,93.6688,VALID,0,VALID,22.9988,VALID,68,VALID,0.245312,
2011-11-13, 00:01:04,VALID,1000.78,VALID,0,VALID,93.6154,VALID,0,VALID,22.9385,VALID,68,VALID,0.2125,
2011-11-13, 00:02:04,VALID,1000.73,VALID,0,VALID,93.6078,VALID,0,VALID,22.9403,VALID,68,VALID,0.146484,
2011-11-13, 00:03:04,VALID,1000.71,VALID,0,VALID,93.5697,VALID,0,VALID,22.9403,VALID,68,VALID,0.267969,
2011-11-13, 00:04:04,VALID,1000.73,VALID,0,VALID,93.6231,VALID,0,VALID,22.9793,VALID,68,VALID,0,
2011-11-13, 00:05:04,VALID,1000.71,VALID,0,VALID,93.6688,VALID,0,VALID,22.9776,VALID,68,VALID,0,
2011-11-13, 00:06:04,VALID,1000.7,VALID,0,VALID,93.707,VALID,0,VALID,22.9971,VALID,68,VALID,0,
2011-11-13, 00:07:04,VALID,1000.7,VALID,0,VALID,93.7451,VALID,0,VALID,22.9793,VALID,68,VALID,0,
2011-11-13, 00:08:04,VALID,1000.7,VALID,0,VALID,93.7604,VALID,0,VALID,22.9793,VALID,68,VALID,0.298047,
2011-11-13, 00:09:04,VALID,1000.68,VALID,0,VALID,93.7757,VALID,0,VALID,22.9598,VALID,68,VALID,0,
2011-11-13, 00:10:04,VALID,1000.71,VALID,0,VALID,93.8062,VALID,0,VALID,22.9403,VALID,68,VALID,0,
2011-11-13, 00:11:04,VALID,1000.68,VALID,0,VALID,93.7985,VALID,0,VALID,22.9403,VALID,68,VALID,0,
2011-11-13, 00:12:04,VALID,1000.66,VALID,0,VALID,93.852,VALID,0,VALID,22.9598,VALID,68,VALID,0,
2011-11-13, 00:13:04,VALID,1000.67,VALID,0,VALID,93.8291,VALID,0,VALID,22.9793,VALID,68,VALID,0,
2011-11-13, 00:14:04,VALID,1000.64,VALID,0,VALID,93.8672,VALID,0,VALID,22.9581,VALID,68,VALID,0,
2011-11-13, 00:15:04,VALID,1000.64,VALID,0,VALID,93.8901,VALID,0,VALID,22.9793,VALID,68,VALID,0,
2011-11-13, 00:16:04,VALID,1000.6,VALID,0,VALID,93.8901,VALID,0,VALID,22.9598,VALID,68,VALID,0,
2011-11-13, 00:17:04,VALID,1000.6,VALID,0,VALID,93.8977,VALID,0,VALID,22.9403,VALID,68,VALID,0,
2011-11-13, 00:18:04,VALID,1000.58,VALID,0,VALID,93.9054,VALID,0,VALID,22.9403,VALID,68,VALID,0,
2011-11-13, 00:19:04,VALID,1000.58,VALID,0,VALID,93.9435,VALID,0,VALID,22.9598,VALID,68,VALID,0.519922,
2011-11-13, 00:20:04,VALID,1000.56,VALID,0,VALID,93.9588,VALID,0,VALID,23.0183,VALID,108,VALID,0.957031,
2011-11-13, 00:21:04,VALID,1000.57,VALID,0,VALID,93.9359,VALID,0,VALID,23.0573,VALID,110,VALID,0.812109,
2011-11-13, 00:22:04,VALID,1000.57,VALID,0,VALID,93.9511,VALID,0,VALID,23.0769,VALID,110,VALID,0.624609,
2011-11-13, 00:23:04,VALID,1000.52,VALID,0,VALID,93.9054,VALID,0,VALID,23.1159,VALID,110,VALID,0.553906,
2011-11-13, 00:24:04,VALID,1000.55,VALID,0,VALID,93.8825,VALID,0,VALID,23.1549,VALID,110,VALID,0.489062,
2011-11-13, 00:25:04,VALID,1000.53,VALID,0,VALID,93.8672,VALID,0,VALID,23.1549,VALID,110,VALID,0.297266,
2011-11-13, 00:26:04,VALID,1000.53,VALID,0,VALID,93.8291,VALID,0,VALID,23.1354,VALID,110,VALID,0.328906,
2011-11-13, 00:27:04,VALID,1000.52,VALID,0,VALID,93.7451,VALID,0,VALID,23.1159,VALID,110,VALID,0.324609,
2011-11-13, 00:28:04,VALID,1000.54,VALID,0,VALID,93.7299,VALID,0,VALID,23.0964,VALID,110,VALID,0.246484,
2011-11-13, 00:29:04,VALID,1000.54,VALID,0,VALID,93.646,VALID,0,VALID,23.0573,VALID,110,VALID,0.332422,
2011-11-13, 00:30:04,VALID,1000.53,VALID,0,VALID,93.5926,VALID,0,VALID,23.0378,VALID,110,VALID,0.41875,
2011-11-13, 00:31:04,VALID,1000.5,VALID,0,VALID,93.5697,VALID,0,VALID,22.9988,VALID,110,VALID,0.244922,
2011-11-13, 00:32:04,VALID,1000.5,VALID,0,VALID,93.5239,VALID,0,VALID,22.9598,VALID,110,VALID,0,
2011-11-13, 00:33:04,VALID,1000.48,VALID,0,VALID,93.5239,VALID,0,VALID,22.9208,VALID,110,VALID,0,
2011-11-13, 00:34:04,VALID,1000.49,VALID,0,VALID,93.4934,VALID,0,VALID,22.9013,VALID,110,VALID,0,
2011-11-13, 00:35:04,VALID,1000.46,VALID,0,VALID,93.5086,VALID,0,VALID,22.8818,VALID,110,VALID,0,
2011-11-13, 00:36:04,VALID,1000.43,VALID,0,VALID,93.562,VALID,0,VALID,22.8818,VALID,110,VALID,0,
2011-11-13, 00:37:04,VALID,1000.43,VALID,0,VALID,93.5926,VALID,0,VALID,22.8818,VALID,110,VALID,0,
2011-11-13, 00:38:04,VALID,1000.41,VALID,0,VALID,93.6307,VALID,0,VALID,22.8818,VALID,110,VALID,0,
2011-11-13, 00:39:04,VALID,1000.4,VALID,0,VALID,93.6917,VALID,0,VALID,22.9013,VALID,110,VALID,0,
2011-11-13, 00:40:04,VALID,1000.38,VALID,0,VALID,93.707,VALID,0,VALID,22.9013,VALID,110,VALID,0,
2011-11-13, 00:41:04,VALID,1000.4,VALID,0,VALID,93.7451,VALID,0,VALID,22.8605,VALID,110,VALID,0,
2011-11-13, 00:42:04,VALID,1000.36,VALID,0,VALID,93.768,VALID,0.104696,VALID,22.88,VALID,110,VALID,0,
2011-11-13, 00:43:04,VALID,1000.35,VALID,0,VALID,93.7985,VALID,0,VALID,22.88,VALID,103,VALID,0,
2011-11-13, 00:44:04,VALID,1000.32,VALID,0,VALID,93.8367,VALID,0,VALID,22.8995,VALID,99,VALID,0,
2011-11-13, 00:45:04,VALID,1000.3,VALID,0,VALID,93.8825,VALID,0,VALID,22.9403,VALID,83,VALID,0,
2011-11-13, 00:46:04,VALID,1000.3,VALID,0,VALID,93.913,VALID,0,VALID,22.9598,VALID,83,VALID,0,
2011-11-13, 00:47:04,VALID,1000.25,VALID,0,VALID,93.9054,VALID,0,VALID,22.9598,VALID,57,VALID,0,
2011-11-13, 00:48:04,VALID,1000.25,VALID,0,VALID,93.9283,VALID,0,VALID,22.9793,VALID,57,VALID,0,
2011-11-13, 00:49:04,VALID,1000.22,VALID,0,VALID,93.9283,VALID,0,VALID,22.9581,VALID,57,VALID,0,
2011-11-13, 00:50:04,VALID,1000.22,VALID,0,VALID,93.9054,VALID,0,VALID,22.8995,VALID,57,VALID,0,
2011-11-13, 00:51:04,VALID,1000.21,VALID,0,VALID,93.9054,VALID,0,VALID,22.9013,VALID,57,VALID,0,
2011-11-13, 00:52:04,VALID,1000.22,VALID,0,VALID,93.8901,VALID,0,VALID,22.9208,VALID,57,VALID,0,
2011-11-13, 00:53:04,VALID,1000.23,VALID,0,VALID,93.8977,VALID,0,VALID,22.9403,VALID,57,VALID,0,
2011-11-13, 00:54:04,VALID,1000.22,VALID,0,VALID,93.9054,VALID,0,VALID,22.9208,VALID,57,VALID,0,
2011-11-13, 00:55:04,VALID,1000.19,VALID,0,VALID,93.9283,VALID,0,VALID,22.9598,VALID,57,VALID,0,
2011-11-13, 00:56:04,VALID,1000.13,VALID,0,VALID,93.9283,VALID,0,VALID,22.9598,VALID,57,VALID,0,
2011-11-13, 00:57:04,VALID,1000.12,VALID,0,VALID,93.9206,VALID,0,VALID,22.9208,VALID,57,VALID,0,
2011-11-13, 00:58:04,VALID,1000.11,VALID,0,VALID,93.8901,VALID,0,VALID,22.9013,VALID,57,VALID,0,
2011-11-13, 00:59:04,VALID,1000.08,VALID,0,VALID,93.9054,VALID,0,VALID,22.8818,VALID,57,VALID,0,
2011-11-13, 01:00:04,VALID,1000.07,VALID,0,VALID,93.9054,VALID,0.104696,VALID,22.8818,VALID,57,VALID,0,
2011-11-13, 01:01:04,VALID,1000.06,VALID,0,VALID,93.9054,VALID,0,VALID,22.8818,VALID,57,VALID,0,
2011-11-13, 01:02:04,VALID,1000.07,VALID,0,VALID,93.913,VALID,0,VALID,22.8623,VALID,57,VALID,0,
2011-11-13, 01:03:04,VALID,1000.06,VALID,0,VALID,93.8977,VALID,0,VALID,22.8623,VALID,57,VALID,0,
2011-11-13, 01:04:04,VALID,1000.02,VALID,0,VALID,93.9435,VALID,0,VALID,22.8427,VALID,57,VALID,0,
2011-11-13, 01:05:04,VALID,1000.01,VALID,0,VALID,93.9283,VALID,0,VALID,22.8623,VALID,57,VALID,0,
2011-11-13, 01:06:04,VALID,999.992,VALID,0,VALID,93.9206,VALID,0,VALID,22.8623,VALID,57,VALID,0,
2011-11-13, 01:07:04,VALID,999.974,VALID,0,VALID,93.9511,VALID,0,VALID,22.8427,VALID,57,VALID,0,
2011-11-13, 01:08:04,VALID,999.965,VALID,0,VALID,93.9435,VALID,0.104696,VALID,22.802,VALID,57,VALID,0,
2011-11-13, 01:09:04,VALID,999.957,VALID,0,VALID,93.974,VALID,0.104696,VALID,22.8215,VALID,57,VALID,0,
2011-11-13, 01:10:04,VALID,999.925,VALID,0,VALID,93.9359,VALID,0.104696,VALID,22.8215,VALID,57,VALID,0,
2011-11-13, 01:11:04,VALID,999.907,VALID,0,VALID,93.9435,VALID,0.104696,VALID,22.8215,VALID,58,VALID,0,
2011-11-13, 01:12:04,VALID,999.911,VALID,0,VALID,93.9511,VALID,0,VALID,22.8215,VALID,58,VALID,0,
2011-11-13, 01:13:04,VALID,999.883,VALID,0,VALID,93.974,VALID,0,VALID,22.88,VALID,58,VALID,0,
2011-11-13, 01:14:04,VALID,999.849,VALID,0,VALID,93.974,VALID,0,VALID,22.9403,VALID,58,VALID,0,
2011-11-13, 01:15:04,VALID,999.838,VALID,0,VALID,93.9893,VALID,0.104696,VALID,22.9581,VALID,58,VALID,0,
2011-11-13, 01:16:04,VALID,999.834,VALID,0,VALID,93.974,VALID,0,VALID,22.9776,VALID,95,VALID,0,
2011-11-13, 01:17:04,VALID,999.81,VALID,0,VALID,93.9664,VALID,0,VALID,23.0361,VALID,95,VALID,0,
2011-11-13, 01:18:04,VALID,999.785,VALID,0,VALID,93.9206,VALID,0,VALID,23.0964,VALID,113,VALID,0,
2011-11-13, 01:19:04,VALID,999.766,VALID,0,VALID,93.9435,VALID,0.104696,VALID,23.1141,VALID,113,VALID,0,
2011-11-13, 01:20:04,VALID,999.772,VALID,0,VALID,93.8901,VALID,0.104696,VALID,23.1531,VALID,113,VALID,0,
2011-11-13, 01:21:04,VALID,999.748,VALID,0,VALID,93.8291,VALID,0,VALID,23.1726,VALID,113,VALID,0,
2011-11-13, 01:22:04,VALID,999.72,VALID,0,VALID,93.7528,VALID,0.104696,VALID,23.2117,VALID,113,VALID,0,
2011-11-13, 01:23:04,VALID,999.682,VALID,0,VALID,93.6841,VALID,0,VALID,23.2312,VALID,113,VALID,0,
2011-11-13, 01:24:04,VALID,999.692,VALID,0,VALID,93.5926,VALID,0.104696,VALID,23.2117,VALID,113,VALID,0,
2011-11-13, 01:25:04,VALID,999.679,VALID,0,VALID,93.501,VALID,0.104696,VALID,23.2312,VALID,113,VALID,0,
2011-11-13, 01:26:04,VALID,999.636,VALID,0,VALID,93.3942,VALID,0,VALID,23.2117,VALID,113,VALID,0,
2011-11-13, 01:27:04,VALID,999.652,VALID,0,VALID,93.295,VALID,0,VALID,23.1921,VALID,113,VALID,0,
2011-11-13, 01:28:04,VALID,999.632,VALID,0,VALID,93.1805,VALID,0,VALID,23.1921,VALID,113,VALID,0,
2011-11-13, 01:29:04,VALID,999.596,VALID,0,VALID,93.089,VALID,0,VALID,23.1939,VALID,113,VALID,0,
2011-11-13, 01:30:04,VALID,999.584,VALID,0,VALID,93.0051,VALID,0,VALID,23.1336,VALID,113,VALID,0,
2011-11-13, 01:31:04,VALID,999.568,VALID,0,VALID,92.9517,VALID,0,VALID,23.1141,VALID,113,VALID,0,
2011-11-13, 01:32:04,VALID,999.553,VALID,0,VALID,92.8983,VALID,0,VALID,23.0751,VALID,113,VALID,0,
2011-11-13, 01:33:04,VALID,999.524,VALID,0,VALID,92.7457,VALID,0,VALID,23.0166,VALID,113,VALID,0,
2011-11-13, 01:34:04,VALID,999.489,VALID,0,VALID,92.7914,VALID,0.104696,VALID,23.0166,VALID,113,VALID,0,
2011-11-13, 01:35:04,VALID,999.443,VALID,0,VALID,92.8448,VALID,0.104696,VALID,22.9971,VALID,113,VALID,0,
2011-11-13, 01:36:04,VALID,999.46,VALID,0,VALID,92.9364,VALID,0.104696,VALID,22.9988,VALID,113,VALID,0,
2011-11-13, 01:37:04,VALID,999.433,VALID,0,VALID,93.0432,VALID,0.104696,VALID,22.9776,VALID,113,VALID,0,
2011-11-13, 01:38:04,VALID,999.407,VALID,0,VALID,93.089,VALID,0,VALID,23.0183,VALID,113,VALID,0,
2011-11-13, 01:39:04,VALID,999.419,VALID,0,VALID,93.1348,VALID,0,VALID,23.0378,VALID,113,VALID,0,
2011-11-13, 01:40:04,VALID,999.406,VALID,0,VALID,93.1653,VALID,0,VALID,23.0769,VALID,113,VALID,0,
2011-11-13, 01:41:04,VALID,999.408,VALID,0,VALID,93.1119,VALID,0,VALID,23.0964,VALID,113,VALID,0,
2011-11-13, 01:42:04,VALID,999.449,VALID,0,VALID,93.0051,VALID,0,VALID,23.1159,VALID,113,VALID,0,
2011-11-13, 01:43:04,VALID,999.464,VALID,0,VALID,92.9364,VALID,0,VALID,23.1354,VALID,113,VALID,0,
2011-11-13, 01:44:04,VALID,999.523,VALID,0,VALID,92.8372,VALID,0,VALID,23.0964,VALID,113,VALID,0,
2011-11-13, 01:45:04,VALID,999.516,VALID,0,VALID,92.6694,VALID,0,VALID,23.0378,VALID,113,VALID,0,
2011-11-13, 01:46:04,VALID,999.566,VALID,0,VALID,92.6007,VALID,0,VALID,22.9988,VALID,113,VALID,0,
2011-11-13, 01:47:04,VALID,999.602,VALID,0,VALID,92.5778,VALID,0,VALID,22.9598,VALID,113,VALID,0,
2011-11-13, 01:48:04,VALID,999.607,VALID,0,VALID,92.6007,VALID,0,VALID,22.9208,VALID,113,VALID,0,
2011-11-13, 01:49:04,VALID,999.566,VALID,0,VALID,92.7228,VALID,0,VALID,22.9208,VALID,113,VALID,0,
2011-11-13, 01:50:04,VALID,999.609,VALID,0,VALID,92.7914,VALID,0,VALID,22.8818,VALID,113,VALID,0,
2011-11-13, 01:51:04,VALID,999.651,VALID,0,VALID,92.8601,VALID,0,VALID,22.8835,VALID,113,VALID,0,
2011-11-13, 01:52:04,VALID,999.616,VALID,0,VALID,92.9898,VALID,0,VALID,22.8623,VALID,113,VALID,0,
2011-11-13, 01:53:04,VALID,999.587,VALID,0,VALID,93.1119,VALID,0.104696,VALID,22.8605,VALID,113,VALID,0,
2011-11-13, 01:54:04,VALID,999.611,VALID,0,VALID,93.2416,VALID,0,VALID,22.88,VALID,113,VALID,0,
2011-11-13, 01:55:04,VALID,999.641,VALID,0,VALID,93.3179,VALID,0,VALID,22.8818,VALID,113,VALID,0,
2011-11-13, 01:56:04,VALID,999.627,VALID,0,VALID,93.4094,VALID,0,VALID,22.8818,VALID,113,VALID,0,
2011-11-13, 01:57:04,VALID,999.62,VALID,0,VALID,93.4705,VALID,0,VALID,22.9013,VALID,113,VALID,0,
2011-11-13, 01:58:04,VALID,999.673,VALID,0,VALID,93.5544,VALID,0,VALID,22.8818,VALID,113,VALID,0,
2011-11-13, 01:59:04,VALID,999.719,VALID,0,VALID,93.562,VALID,0,VALID,22.8605,VALID,113,VALID,0,
2011-11-13, 02:00:04,VALID,999.695,VALID,0,VALID,93.5926,VALID,0.104696,VALID,22.8605,VALID,113,VALID,0,
2011-11-13, 02:01:04,VALID,999.753,VALID,0,VALID,93.6154,VALID,0.104696,VALID,22.8215,VALID,113,VALID,0,
2011-11-13, 02:02:04,VALID,999.733,VALID,0,VALID,93.6307,VALID,0,VALID,22.841,VALID,113,VALID,0,
2011-11-13, 02:03:04,VALID,999.702,VALID,0,VALID,93.6536,VALID,0,VALID,22.8215,VALID,113,VALID,0,
2011-11-13, 02:04:04,VALID,999.702,VALID,0,VALID,93.6383,VALID,0,VALID,22.7825,VALID,113,VALID,0,
2011-11-13, 02:05:04,VALID,999.684,VALID,0,VALID,93.6307,VALID,0.104696,VALID,22.763,VALID,113,VALID,0,
2011-11-13, 02:06:04,VALID,999.629,VALID,0,VALID,93.646,VALID,0,VALID,22.724,VALID,113,VALID,0,
2011-11-13, 02:07:04,VALID,999.632,VALID,0,VALID,93.6231,VALID,0,VALID,22.7062,VALID,113,VALID,0,
2011-11-13, 02:08:04,VALID,999.624,VALID,0,VALID,93.6002,VALID,0,VALID,22.6672,VALID,113,VALID,0,
2011-11-13, 02:09:04,VALID,999.613,VALID,0,VALID,93.5468,VALID,0,VALID,22.6087,VALID,113,VALID,0,
2011-11-13, 02:10:04,VALID,999.588,VALID,0,VALID,93.5391,VALID,0,VALID,22.5696,VALID,113,VALID,0,
2011-11-13, 02:11:04,VALID,999.593,VALID,0,VALID,93.5239,VALID,0,VALID,22.5306,VALID,113,VALID,0,
2011-11-13, 02:12:04,VALID,999.592,VALID,0,VALID,93.5697,VALID,0,VALID,22.5111,VALID,113,VALID,0,
2011-11-13, 02:13:04,VALID,999.592,VALID,0,VALID,93.6154,VALID,0,VALID,22.5306,VALID,113,VALID,0,
2011-11-13, 02:14:04,VALID,999.557,VALID,0,VALID,93.6994,VALID,0,VALID,22.5484,VALID,113,VALID,0,
2011-11-13, 02:15:04,VALID,999.569,VALID,0,VALID,93.7375,VALID,0,VALID,22.5696,VALID,113,VALID,0,
2011-11-13, 02:16:04,VALID,999.563,VALID,0,VALID,93.7833,VALID,0,VALID,22.5696,VALID,113,VALID,0,
2011-11-13, 02:17:04,VALID,999.561,VALID,0,VALID,93.8443,VALID,0,VALID,22.6087,VALID,113,VALID,0,
2011-11-13, 02:18:04,VALID,999.541,VALID,0,VALID,93.8977,VALID,0,VALID,22.6087,VALID,113,VALID,0,
2011-11-13, 02:19:04,VALID,999.537,VALID,0,VALID,93.9283,VALID,0,VALID,22.6069,VALID,113,VALID,0,
2011-11-13, 02:20:04,VALID,999.538,VALID,0,VALID,93.9435,VALID,0,VALID,22.6069,VALID,113,VALID,0,
2011-11-13, 02:21:04,VALID,999.553,VALID,0,VALID,93.9664,VALID,0,VALID,22.6087,VALID,113,VALID,0,
2011-11-13, 02:22:04,VALID,999.539,VALID,0,VALID,94.0045,VALID,0,VALID,22.6087,VALID,113,VALID,0,
2011-11-13, 02:23:04,VALID,999.532,VALID,0,VALID,94.0351,VALID,0,VALID,22.6087,VALID,113,VALID,0,
2011-11-13, 02:24:04,VALID,999.531,VALID,0,VALID,94.0351,VALID,0,VALID,22.6069,VALID,113,VALID,0,
2011-11-13, 02:25:04,VALID,999.512,VALID,0,VALID,94.058,VALID,0,VALID,22.6087,VALID,113,VALID,0,
2011-11-13, 02:26:04,VALID,999.494,VALID,0,VALID,94.058,VALID,0,VALID,22.6087,VALID,113,VALID,0,
2011-11-13, 02:27:04,VALID,999.484,VALID,0,VALID,94.0732,VALID,0,VALID,22.5892,VALID,113,VALID,0,
2011-11-13, 02:28:04,VALID,999.468,VALID,0,VALID,94.1114,VALID,0,VALID,22.6282,VALID,113,VALID,0,
2011-11-13, 02:29:04,VALID,999.461,VALID,0,VALID,94.0885,VALID,0,VALID,22.6282,VALID,113,VALID,0,
2011-11-13, 02:30:04,VALID,999.483,VALID,0,VALID,94.119,VALID,0,VALID,22.6282,VALID,113,VALID,0,
2011-11-13, 02:31:04,VALID,999.48,VALID,0,VALID,94.1343,VALID,0,VALID,22.5892,VALID,113,VALID,0,
2011-11-13, 02:32:04,VALID,999.467,VALID,0,VALID,94.1266,VALID,0,VALID,22.5892,VALID,113,VALID,0,
2011-11-13, 02:33:04,VALID,999.522,VALID,0,VALID,94.1571,VALID,0,VALID,22.5484,VALID,113,VALID,0,
2011-11-13, 02:34:04,VALID,999.543,VALID,0,VALID,94.1571,VALID,0.104696,VALID,22.5696,VALID,113,VALID,0,
2011-11-13, 02:35:04,VALID,999.528,VALID,0,VALID,94.1648,VALID,0,VALID,22.5696,VALID,113,VALID,0,
2011-11-13, 02:36:04,VALID,999.469,VALID,0,VALID,94.1571,VALID,0,VALID,22.5696,VALID,113,VALID,0,
2011-11-13, 02:37:04,VALID,999.465,VALID,0,VALID,94.18,VALID,0,VALID,22.5696,VALID,113,VALID,0,
2011-11-13, 02:38:04,VALID,999.452,VALID,0,VALID,94.1724,VALID,0,VALID,22.5696,VALID,113,VALID,0,
2011-11-13, 02:39:04,VALID,999.438,VALID,0,VALID,94.1648,VALID,0,VALID,22.5696,VALID,113,VALID,0,
2011-11-13, 02:40:04,VALID,999.483,VALID,0,VALID,94.1648,VALID,0,VALID,22.6087,VALID,113,VALID,0,
2011-11-13, 02:41:04,VALID,999.487,VALID,0,VALID,94.1648,VALID,0,VALID,22.6087,VALID,113,VALID,0,
2011-11-13, 02:42:04,VALID,999.487,VALID,0,VALID,94.1877,VALID,0,VALID,22.6087,VALID,113,VALID,0,
2011-11-13, 02:43:04,VALID,999.486,VALID,0,VALID,94.1953,VALID,0,VALID,22.6087,VALID,113,VALID,0,
2011-11-13, 02:44:04,VALID,999.501,VALID,0,VALID,94.1953,VALID,0,VALID,22.6477,VALID,113,VALID,0,
2011-11-13, 02:45:04,VALID,999.469,VALID,0,VALID,94.1953,VALID,0,VALID,22.646,VALID,113,VALID,0,
2011-11-13, 02:46:04,VALID,999.514,VALID,0,VALID,94.1953,VALID,0,VALID,22.6867,VALID,113,VALID,0,
2011-11-13, 02:47:04,VALID,999.507,VALID,0,VALID,94.1953,VALID,0,VALID,22.6477,VALID,113,VALID,0,
2011-11-13, 02:48:04,VALID,999.524,VALID,0,VALID,94.1877,VALID,0,VALID,22.6282,VALID,113,VALID,0,
2011-11-13, 02:49:04,VALID,999.515,VALID,0,VALID,94.1648,VALID,0,VALID,22.6264,VALID,113,VALID,0,
2011-11-13, 02:50:04,VALID,999.526,VALID,0,VALID,94.1724,VALID,0,VALID,22.6264,VALID,113,VALID,0,
2011-11-13, 02:51:04,VALID,999.543,VALID,0,VALID,94.1724,VALID,0,VALID,22.6282,VALID,113,VALID,0,
2011-11-13, 02:52:04,VALID,999.52,VALID,0,VALID,94.1724,VALID,0,VALID,22.5874,VALID,113,VALID,0,
2011-11-13, 02:53:04,VALID,999.561,VALID,0,VALID,94.1648,VALID,0,VALID,22.6087,VALID,113,VALID,0,
2011-11-13, 02:54:04,VALID,999.564,VALID,0,VALID,94.1724,VALID,0,VALID,22.6282,VALID,113,VALID,0,
2011-11-13, 02:55:04,VALID,999.573,VALID,0,VALID,94.1648,VALID,0,VALID,22.6672,VALID,113,VALID,0,
2011-11-13, 02:56:04,VALID,999.592,VALID,0,VALID,94.1648,VALID,0,VALID,22.685,VALID,113,VALID,0,
2011-11-13, 02:57:04,VALID,999.649,VALID,0,VALID,94.1571,VALID,0,VALID,22.7062,VALID,113,VALID,0,
2011-11-13, 02:58:04,VALID,999.659,VALID,0,VALID,94.1648,VALID,0,VALID,22.685,VALID,113,VALID,0,
2011-11-13, 02:59:04,VALID,999.713,VALID,0,VALID,94.1648,VALID,0,VALID,22.6867,VALID,113,VALID,0,
2011-11-13, 03:00:04,VALID,999.729,VALID,0,VALID,94.1419,VALID,0,VALID,22.7062,VALID,113,VALID,0,
2011-11-13, 03:01:04,VALID,999.811,VALID,0,VALID,94.1571,VALID,0,VALID,22.7257,VALID,113,VALID,0,
2011-11-13, 03:02:04,VALID,999.822,VALID,0,VALID,94.1724,VALID,0,VALID,22.7842,VALID,113,VALID,0,
2011-11-13, 03:03:04,VALID,999.859,VALID,0,VALID,94.1419,VALID,0,VALID,22.8037,VALID,40,VALID,0,
2011-11-13, 03:04:04,VALID,999.872,VALID,0,VALID,94.1648,VALID,0,VALID,22.8215,VALID,40,VALID,0,
2011-11-13, 03:05:04,VALID,999.877,VALID,0,VALID,94.1571,VALID,0,VALID,22.8232,VALID,40,VALID,0,
2011-11-13, 03:06:04,VALID,999.882,VALID,0,VALID,94.1343,VALID,0,VALID,22.825,VALID,40,VALID,0,
2011-11-13, 03:07:04,VALID,999.889,VALID,0,VALID,94.1114,VALID,0,VALID,22.8037,VALID,40,VALID,0,
2011-11-13, 03:08:04,VALID,999.898,VALID,0,VALID,94.0961,VALID,0,VALID,22.8037,VALID,40,VALID,0,
2011-11-13, 03:09:04,VALID,999.914,VALID,0,VALID,94.0961,VALID,0,VALID,22.8037,VALID,40,VALID,0,
2011-11-13, 03:10:04,VALID,999.921,VALID,0,VALID,94.0732,VALID,0,VALID,22.8037,VALID,40,VALID,0,
2011-11-13, 03:11:04,VALID,999.915,VALID,0,VALID,94.0656,VALID,0,VALID,22.8232,VALID,40,VALID,0,
2011-11-13, 03:12:04,VALID,999.938,VALID,0,VALID,94.0656,VALID,0,VALID,22.8427,VALID,40,VALID,0,
2011-11-13, 03:13:04,VALID,999.884,VALID,0,VALID,94.0732,VALID,0,VALID,22.8623,VALID,40,VALID,0,
2011-11-13, 03:14:04,VALID,999.908,VALID,0,VALID,94.0732,VALID,0,VALID,22.8835,VALID,40,VALID,0,
2011-11-13, 03:15:04,VALID,999.901,VALID,0,VALID,94.0732,VALID,0,VALID,22.903,VALID,40,VALID,0,
2011-11-13, 03:16:04,VALID,999.951,VALID,0,VALID,94.0503,VALID,0,VALID,22.9013,VALID,40,VALID,0,
2011-11-13, 03:17:04,VALID,999.956,VALID,0,VALID,94.0503,VALID,0,VALID,22.9208,VALID,23,VALID,0,
2011-11-13, 03:18:04,VALID,999.983,VALID,0,VALID,94.0427,VALID,0,VALID,22.919,VALID,324,VALID,0,
2011-11-13, 03:19:04,VALID,999.998,VALID,0,VALID,94.0656,VALID,0,VALID,22.9403,VALID,309,VALID,0,
2011-11-13, 03:20:04,VALID,999.989,VALID,0,VALID,94.0656,VALID,0,VALID,22.9385,VALID,305,VALID,0,
2011-11-13, 03:21:04,VALID,999.976,VALID,0,VALID,94.058,VALID,0,VALID,22.9793,VALID,283,VALID,0,
2011-11-13, 03:22:04,VALID,999.991,VALID,0,VALID,94.0656,VALID,0,VALID,22.9793,VALID,281,VALID,0,
2011-11-13, 03:23:04,VALID,999.968,VALID,0,VALID,94.0808,VALID,0,VALID,22.9988,VALID,281,VALID,0,
2011-11-13, 03:24:04,VALID,999.967,VALID,0,VALID,94.0732,VALID,0,VALID,22.9988,VALID,281,VALID,0,
2011-11-13, 03:25:04,VALID,999.955,VALID,0,VALID,94.0656,VALID,0,VALID,22.9988,VALID,281,VALID,0,
2011-11-13, 03:26:04,VALID,999.92,VALID,0,VALID,94.0732,VALID,0,VALID,23.0183,VALID,281,VALID,0,
2011-11-13, 03:27:04,VALID,999.926,VALID,0,VALID,94.0427,VALID,0,VALID,23.0183,VALID,281,VALID,0,
2011-11-13, 03:28:04,VALID,999.894,VALID,0,VALID,94.0656,VALID,0,VALID,23.0183,VALID,281,VALID,0,
2011-11-13, 03:29:04,VALID,999.919,VALID,0,VALID,94.058,VALID,0,VALID,23.0183,VALID,281,VALID,0,
2011-11-13, 03:30:04,VALID,999.896,VALID,0,VALID,94.0656,VALID,0,VALID,23.0183,VALID,281,VALID,0,
2011-11-13, 03:31:04,VALID,999.903,VALID,0,VALID,94.0503,VALID,0,VALID,23.0183,VALID,281,VALID,0,
2011-11-13, 03:32:04,VALID,999.938,VALID,0,VALID,94.0656,VALID,0,VALID,23.0183,VALID,281,VALID,0,
2011-11-13, 03:33:04,VALID,999.926,VALID,0,VALID,94.0656,VALID,0,VALID,23.0378,VALID,247,VALID,0,
2011-11-13, 03:34:04,VALID,999.904,VALID,0,VALID,94.0503,VALID,0,VALID,23.0769,VALID,204,VALID,0,
2011-11-13, 03:35:04,VALID,999.906,VALID,0,VALID,94.0427,VALID,0,VALID,23.0964,VALID,204,VALID,0,
2011-11-13, 03:36:04,VALID,999.878,VALID,0,VALID,94.0656,VALID,0,VALID,23.1354,VALID,204,VALID,0,
2011-11-13, 03:37:04,VALID,999.918,VALID,0,VALID,94.0656,VALID,0,VALID,23.1336,VALID,204,VALID,0,
2011-11-13, 03:38:04,VALID,999.885,VALID,0,VALID,94.0427,VALID,0,VALID,23.1744,VALID,204,VALID,0,
2011-11-13, 03:39:04,VALID,999.913,VALID,0,VALID,94.0351,VALID,0,VALID,23.1939,VALID,204,VALID,0,
2011-11-13, 03:40:04,VALID,999.906,VALID,0,VALID,94.0045,VALID,0,VALID,23.2134,VALID,204,VALID,0,
2011-11-13, 03:41:04,VALID,999.853,VALID,0,VALID,94.0122,VALID,0,VALID,23.2134,VALID,204,VALID,0,
2011-11-13, 03:42:04,VALID,999.837,VALID,0,VALID,93.974,VALID,0,VALID,23.2329,VALID,204,VALID,0,
2011-11-13, 03:43:04,VALID,999.857,VALID,0,VALID,93.9664,VALID,0,VALID,23.2329,VALID,204,VALID,0,
2011-11-13, 03:44:04,VALID,999.821,VALID,0,VALID,93.9283,VALID,0,VALID,23.2507,VALID,204,VALID,0,
2011-11-13, 03:45:04,VALID,999.821,VALID,0,VALID,93.8748,VALID,0,VALID,23.311,VALID,193,VALID,0,
2011-11-13, 03:46:05,VALID,999.774,VALID,0,VALID,93.8367,VALID,0,VALID,23.35,VALID,171,VALID,1.75703,
2011-11-13, 03:47:05,VALID,999.731,VALID,0,VALID,93.6917,VALID,0,VALID,23.4085,VALID,166,VALID,1.90469,
2011-11-13, 03:48:05,VALID,999.726,VALID,0,VALID,93.4934,VALID,0,VALID,23.4475,VALID,165,VALID,1.67813,
2011-11-13, 03:49:05,VALID,999.743,VALID,0,VALID,93.2874,VALID,0,VALID,23.4263,VALID,174,VALID,1.81484,
2011-11-13, 03:50:05,VALID,999.741,VALID,0,VALID,93.0432,VALID,0,VALID,23.4263,VALID,174,VALID,1.90313,
2011-11-13, 03:51:05,VALID,999.736,VALID,0,VALID,92.8143,VALID,0,VALID,23.4475,VALID,181,VALID,1.99961,
2011-11-13, 03:52:05,VALID,999.774,VALID,0,VALID,92.5931,VALID,0,VALID,23.4458,VALID,187,VALID,2.15625,
2011-11-13, 03:53:05,VALID,999.762,VALID,0,VALID,92.3794,VALID,0,VALID,23.4671,VALID,193,VALID,2.12383,
2011-11-13, 03:54:05,VALID,999.797,VALID,0,VALID,92.2421,VALID,0,VALID,23.4653,VALID,188,VALID,1.69219,
2011-11-13, 03:55:05,VALID,999.812,VALID,0,VALID,92.1582,VALID,0,VALID,23.5061,VALID,186,VALID,1.60156,
2011-11-13, 03:56:05,VALID,999.818,VALID,0,VALID,92.0361,VALID,0,VALID,23.5043,VALID,194,VALID,1.13867,
2011-11-13, 03:57:05,VALID,999.83,VALID,0,VALID,91.914,VALID,0,VALID,23.5256,VALID,179,VALID,0.857422,